Погода в Скале

Греция     37°42′28″N   23°21′44″E
темп.,
°C
ветер,
м/с
пор.,
м/с
влажн.,
%
обл.,
%
осадки,
мм/ч
давл.,
гПа
погр.,
м
8 мая, сб
сб800:00+19св1277100 0.0 101121
03:00+19св1277100 0.0 100917
06:00+19сз4566100 0.0 101069
09:00+20сз226310 0.0 101031
12:00+21юв11620 0.0 101063
15:00+22ююв22540 0.0 100995
18:00+20ююв34655 0.0 101068
21:00+21ююз22680 0.0 101311
9 мая, вс
вс900:00+20ссз34690 0.0 101530
03:00+18ссз67790 0.0 1017186
06:00+17ссз56754 0.0 1019382
09:00+17ссз45645 0.0 1022533
12:00+19с47565 0.0 1023500
15:00+20ссв911570 0.0 1022370
18:00+19ссв89581 0.0 1022298
21:00+18с67600 0.0 1022204
10 мая, пн
пн1000:00+17ссз56580 0.0 1023382
03:00+16сз66620 0.0 1022383
06:00+16сз67660 0.0 1021433
09:00+16ссз66620 0.0 1022624
12:00+18ссз45520 0.0 1021559
15:00+19ссв34510 0.0 1020208
18:00+20с24505 0.0 1019163
21:00+19ссз35525 0.0 1019122
11 мая, вт
вт1100:00+17сз55435 0.0 1019278
03:00+16сз67505 0.0 1018317
06:00+16сз67550 0.0 1017308
09:00+17ссз56570 0.0 1017397
12:00+19ссз34560 0.0 1017236
15:00+20з02570 0.0 101573
18:00+20юз11480 0.0 101455
21:00+20з33541 0.0 101318
12 мая, ср
ср1200:00+19сз116221 0.0 101318
03:00+18сз22610 0.0 101243
06:00+18зсз2257100 0.0 101298
09:00+18ссв115294 0.0 1012102
12:00+18в4452100 0.0 1012147
15:00+19в6669100 0.0 1010197
18:00+19всв55740 0.0 1009132
21:00+18с33790 0.0 1008124